User: anonymous   Login
Location: Huntington Beach
(33.6600°N, 117.9980°W)
Time: 09:19:10
(UTC-07:00)
Language:

Hubble Space Telescope - Orbit

View from above orbital plane
View from above orbital plane
View from above satellite
View from above satellite

Ground track
Ground track

The orbit data is extracted from the following two-line orbital elements,

1 20580U 90037B   16181.21488602  .00000457  00000-0  17391-4 0  9993
2 20580  28.4687 179.2888 0002647 342.6525 119.6581 15.08405998236923
Epoch (UTC): 29 June 2016 05:09:26
Eccentricity: 0.0002647
inclination: 28.4687°
perigee height: 539 km
apogee height: 543 km
right ascension of ascending node: 179.2888°
argument of perigee: 342.6525°
revolutions per day: 15.08405998
mean anomaly at epoch: 119.6581°
orbit number at epoch: 23692

The dashed part of the orbit path shows where the satellite is in the earth's shadow,  

DLR